Tracking 25193 objects as of 18-Jan-2022
HD Live streaming from Space Station
objects crossing your sky now

CZ-4 R/B

Track CZ-4 R/B now!
10-day predictions
CZ-4 R/B is classified as:


NORAD ID: 29507
Int'l Code: 2006-046C
Perigee: 537.8 km
Apogee: 602.3 km
Inclination: 97.8 °
Period: 95.9 minutes
Semi major axis: 6941 km
RCS: 4.43 m2 (large)
Launch date: October 23, 2006
Source: People's Republic of China (PRC)
Launch site: Taiyaun Space Center, China (TSC)

Note: This is a ROCKET BODY
aabbcc
Your satellite tracking list
Your tracking list is empty




NASA's NSSDC Master Catalog

Two Line Element Set (TLE):
1 29507U 06046C   22017.79478533  .00000678  00000-0  56415-4 0  9993
2 29507  97.7512  48.4394 0046463  15.1984 345.0623 15.01291313832269
Source of the keplerian elements: AFSPC